User: anonymous   Login
Location: Fort Wayne
(41.1310°N, 85.1290°W)
Time: 19:00:10
(UTC-05:00)
Language:

Tiros 1 despin weight - Orbit

View from above orbital plane
View from above orbital plane
View from above satellite
View from above satellite

Ground track
Ground track

The orbit data is extracted from the following two-line orbital elements,

1 00115U 60002D   16343.38974368  .00000292  00000-0  62549-4 0  9993
2 00115  48.1676 340.5958 0035250 337.6034  22.3338 14.82963510 21908
Epoch (UTC): 08 December 2016 09:21:13
Eccentricity: 0.0035250
inclination: 48.1676°
perigee height: 595 km
apogee height: 644 km
right ascension of ascending node: 340.5958°
argument of perigee: 337.6034°
revolutions per day: 14.82963510
mean anomaly at epoch: 22.3338°
orbit number at epoch: 2190

The dashed part of the orbit path shows where the satellite is in the earth's shadow,  

DLR